Preview of NWS' New Version of Forecast
This preview is not operational and should not be used for support decisions.

Regional Weather Roundup (RWR)

Issued by National Weather Service (NWS)

                            
000
ASUS43 KMKX 201121
RWRWI 

WISCONSIN REGIONAL WEATHER ROUNDUP
NATIONAL WEATHER SERVICE MILWAUKEE/SULLIVAN WI
600 AM CDT THU JUN 20 2019

NOTE: "FAIR" INDICATES FEW OR NO CLOUDS BELOW 12,000 FEET WITH NO
SIGNIFICANT WEATHER AND/OR OBSTRUCTIONS TO VISIBILITY.

WIZ001-002-006>008-014>016-023>028-201200-
NORTHWEST WISCONSIN
  
CITY           SKY/WX    TMP DP  RH WIND       PRES   REMARKS
SUPERIOR ARPT  FAIR      46  46 100 CALM      29.86R                  
ASHLAND        FAIR      44  44 100 CALM      29.86R                  
HAYWARD        FAIR      50  47  89 NE5       29.85R                  
SIREN          FAIR      56  47  70 E5        29.83R                  
CUMBERLAND     MOCLDY    55  45  67 E5        29.83S                  
RICE LAKE      FAIR      57  47  70 NE5       29.84S                  
CHETEK         FAIR      56  49  77 E6        29.83S                  
LADYSMITH      FAIR      52  46  81 CALM      29.86R                  
EAU CLAIRE     FAIR      57  49  74 NE7       29.80R                  
MENOMONIE      CLOUDY    56  48  72 E6        29.82R                  
NEW RICHMOND   FAIR      59  51  73 E8        29.80S                  
OSCEOLA        MOCLDY    61  51  71 E3        29.82S                  
$$
 
WIZ003>005-009-010-017-018-201200-
NORTH CENTRAL WISCONSIN
  
CITY           SKY/WX    TMP DP  RH WIND       PRES   REMARKS
MANITOWISH WTR FAIR      48  48 100 CALM      29.85R                  
ARBOR VITAE    FAIR      47  45  93 CALM      29.84R                  
WOODRUFF       FAIR      47  45  93 CALM      29.84R                  
RHINELANDER    FAIR      51  44  77 CALM      29.84R                  
EAGLE RIVER    FAIR      44  43  95 CALM      29.84R                  
LAND O LAKES   MOCLDY    46  46 100 CALM      29.87R                  
PHILLIPS       FAIR      48  47  99 CALM      29.85R                  
TOMAHAWK       FAIR      44  44  97 CALM      29.84R                  
MEDFORD        FAIR      50  44  79 CALM      29.83R                  
MERRILL        FAIR      49  46  87 CALM      29.83R                  
$$
 
WIZ029-030-035-036-043>047-201200-
CENTRAL WISCONSIN
  
CITY           SKY/WX    TMP DP  RH WIND       PRES   REMARKS
WAUSAU         FAIR      53  43  68 NW5       29.80R                  
MOSINEE        MOCLDY    52  45  76 N7        29.81R                  
MARSHFIELD     FAIR      54  44  69 NE8       29.78R                  
STEVENS POINT  FAIR      51  45  80 N5        29.80R                  
WAUPACA        FAIR      57  47  71 N7        29.77R                  
WAUTOMA        FAIR      56  48  74 N7        29.76R                  
WISC RAPIDS    FAIR      56  46  69 N9        29.79R                  
CAMP DOUGLAS   FAIR      51  51 100 W5        29.78R                  
$$
 
WIZ011>013-019>022-031-037>040-048>050-201200-
NORTHEAST WISCONSIN
  
CITY           SKY/WX    TMP DP  RH WIND       PRES   REMARKS
ANTIGO         MOCLDY    50  42  74 NE8       29.81R                  
SHAWANO        FAIR      56  47  71 N9        29.77R                  
OCONTO         FAIR      54  46  76 N5        29.76S                  
STURGEON BAY   FAIR      55  49  80 N8        29.75R                  
GREEN BAY      FAIR      55  48  77 N8        29.74R                  
MANITOWOC      CLOUDY    56  47  71 N8G17     29.72R                  
APPLETON       PTCLDY    54  45  71 N10       29.72S                  
CLINTONVILLE   FAIR      55  44  67 N9        29.77R                  
OSHKOSH        CLOUDY    59  51  75 N13       29.72R                  
$$
 
WIZ032>034-041-042-053>061-201200-
SOUTHWEST WISCONSIN
  
CITY           SKY/WX    TMP DP  RH WIND       PRES   REMARKS
LA CROSSE      FAIR      61  54  77 CALM      29.78R                  
SPARTA         FAIR      47  47  99 CALM      29.79S                  
VIROQUA        FAIR      55  55 100 N3        29.79R                  
BOSCOBEL       FAIR      54  53  97 CALM      29.77R                  
PRAIRIE DU CHI FAIR      56  55  96 CALM      29.78R                  
PLATTEVILLE    FAIR      57  57 100 N6        29.77R                  
$$

WIZ056-057-062-063-064-067-068-201200-
SOUTH CENTRAL WISCONSIN
  
CITY           SKY/WX    TMP DP  RH WIND       PRES   REMARKS
REEDSBURG      FAIR      55  54  95 CALM      29.77R                  
BARABOO/DELLS  FAIR      55  51  89 NW3       29.77R                  
LONE ROCK      FAIR      56  54  93 W5        29.76R                  
MINERAL POINT  FAIR      57  57 100 N7        29.76R                  
MADISON        MOCLDY    57  54  89 N9        29.72R                  
MIDDLETON      FAIR      58  55  90 N7        29.74R                  
WATERTOWN      CLOUDY    57  54  88 N7        29.71R                  
MONROE         FAIR      56  55  94 N7        29.73R                  
JANESVILLE     MOCLDY    59  59 100 N8        29.69R                  
$$
 
WIZ051-052-058>065-066-070>072-201200-
SOUTHEAST WISCONSIN
  
CITY           SKY/WX    TMP DP  RH WIND       PRES   REMARKS
MILWAUKEE      LGT RAIN  55  53  93 N9G20     29.66R                  
WAUKESHA       CLOUDY    54  54 100 N6        29.68R                  
MILWAUKEE/TIMM CLOUDY    54  50  87 N8        29.69R                  
RACINE         LGT RAIN  52  51  97 N16       29.66R FOG              
KENOSHA        CLOUDY    56  56 100 N9        29.64R                  
FOND DU LAC    CLOUDY    61  49  64 N12       29.72R                  
SHEBOYGAN      LGT RAIN  54  50  86 NE10      29.70R FOG              
WEST BEND      DRIZZLE   54  52  94 N6        29.70R                  
JUNEAU         CLOUDY    57  50  75 N9        29.73R                  
$$

LSZ147-162-201200-
LAKE SUPERIOR
  
STATION/POSITION TIME  TEMP    WIND        PRES    WAVE
                       AIR SEA DIR/SP/G            HT/PER
                 (UTC) (F)     (DEG/KT/KT) (MB)    (FT/S)
W MID LAKE BUOY  1050   42 38  320/  6/  6 1011.0R   0
$$
 
LMZ867-665-643>646-201200-
LAKE MICHIGAN
  
STATION/POSITION TIME  TEMP    WIND        PRES    WAVE
                       AIR SEA DIR/SP/G            HT/PER
                 (UTC) (F)     (DEG/KT/KT) (MB)    (FT/S)
N MID LAKE BUOY  1100   44 39   10/  8/ 10 1008.0
NORTHPORT PIER   1040   56     330/  3/  5 1007.5S
KEWAUNEE LAKESHO 1036   55      20/  8/ 13 1006.0R
SHEBOYGAN LAKESH 1100   51      10/ 20/ 23 1005.6R
MILWAUKEE LAKESH 1050   53     360/ 16/ 20   N/A
S MID LAKE BUOY  1100   51 47   20/ 14/ 16 1003.1
KENOSHA   LAKESH 1100   56     360/ 15/ 18 1003.7
$$

TC  - TEMPERATURE IN CELSIUS
VSB - VISIBILITY IN STATUTE MILES
WCI - WIND CHILL INDEX
HX  - HEAT INDEX